DJIBOUTI-1B

导读

DJIBOUTI-1B是吉布提发射的卫星,于2024年12月21日发射升空。作为吉布提自主航天探索的重要尝试,该卫星承载着吉布提提升本国航天能力的愿景,预计将服务于吉布提本国国土资源普查、环境监测、灾害预警等领域,也将助力吉布提区域遥感信息获取,推动东非地区空间技术应用发展。

Basic Information
目录编号:
62402
目录名称:
DJIBOUTI-1B
国际标识:
2024-247AB
轨道中心:
EARTH
卫星名称:
DJIBOUTI-1B
卫星全名:
DJIBOUTI-1B
卫星状态:
在轨 (已飞行629 天)
发射日期:
2024-12-21 UTC
国别 :
(DJ)
星等 :
--
This satellite is enrolled in the Space Conjunction Data Service (SCDS) and the current flight risk assessment level is: No High Risk
Orbit Information
数据来源 国际轨道数据
星历时间: 2026-09-11T08:06:16+0800
17小时前
查看轨道信息
半长轴: 6746.527km
偏心率: 0.0009841
轨道倾角: 44.966°
近地点辐角 216.278°
升交点赤经 110.891°
平近点角 143.745°
近地点: 361.75km
远地点: 375.03km
周期: 91.914分钟
每日圈数: 15.666877
Detailed Information
使用方式:
暂无
2D Orbit Map
3D Orbit Map
Orbit Altitude Analysis Chart
Orbit Inclination Analysis Chart
Orbit Comprehensive Analysis Chart
View Comprehensive Chart
Conjunction Data List
Event ID Objects TCA Miss Dist (km) Collision Risk Probability Collision Risk Index (CRI) Action
CDM_260913-025305-620306-240221
2026-09-13T
02:53:09+0000
1.287 km
极远距离
8.463783E-6 低风险 0.54
CDM_260906-135405-747006-240223
2026-09-06T
13:54:00+0000
2.622 km
极远距离
1.212687E-6 低风险 0.37
Miss Distance Evolution Trend with All Objects
Collision Probability Evolution Trend with All Objects